Regional Weather Roundup
Issued by NWS Upton, NY

Current Version | Previous Version | Text Only | Print | Product List | Glossary On
Versions: 1 2 3 4 5 6 7 8 9 10 11 12 13 14 15 16 17 18 19 20 21 22 23 24 25 26 27 28 29 30 31 32 33 34 35 36 37 38 39 40 41 42 43 44 45 46 47 48 49 50
000
ASUS41 KOKX 180208
RWROKX

REGIONAL WEATHER ROUNDUP
NATIONAL WEATHER SERVICE NEW YORK NY
1000 PM EDT TUE OCT 17 2017

NOTE: "FAIR" INDICATES FEW OR NO CLOUDS BELOW 12,000 FEET WITH NO
SIGNIFICANT WEATHER AND/OR OBSTRUCTIONS TO VISIBILITY.

NYZ071-072-176-178-NJZ106-104-180300-
NEW YORK CITY METRO AREA

CITY           SKY/WX    TMP DP  RH WIND       PRES   REMARKS
Central Park   CLEAR     55  37  50 MISG      30.31R
Bronx Bot Gard   N/A     54  36  50 SE2       30.29S
LaGuardia APRT CLEAR     56  38  50 SW10      30.28S
Kennedy INTL   CLEAR     54  44  69 SW13      30.30R
Breezy Point     N/A     54 N/A N/A SW12G17     N/A
Newark/Liberty CLEAR     52  39  61 S12       30.29R
Teterboro      CLEAR     52  42  69 SW7       30.28R
$$

NYZ177-179-078>081-180300-
LONG ISLAND NEW YORK

CITY           SKY/WX    TMP DP  RH WIND       PRES   REMARKS
Jones Beach      N/A     55 N/A N/A SW8G14      N/A
Matinecock PT    N/A     54 N/A N/A SW9         N/A
Farmingdale    CLEAR     50  40  68 SW3       30.29S
MacArthur/ISP  CLEAR     46  40  79 CALM      30.29S
Shirley        CLEAR     46  41  82 CALM      30.30R
Mt Sinai Harb    N/A    N/A N/A N/A S8          N/A
Westhampton    CLEAR     36  31  82 W3        30.31R
East Hampton   FAIR      37  35  93 CALM      30.29R
Montauk          N/A     52  43  71 SW3       30.30R
$$

NYZ052-065-067-180300-
HUDSON VALLEY

CITY           SKY/WX    TMP DP  RH WIND       PRES   REMARKS
White Plains   CLEAR     51  39  63 S3        30.27R
Larchmont Harb   N/A     55 N/A N/A S15         N/A
Croton On Huds   N/A     54 N/A N/A SW2         N/A
Newburgh       CLEAR     48  37  66 W5        30.27R
Montgomery     CLEAR     40  37  89 SW3       30.25R
Poughkeepsie   CLEAR     41  36  82 CALM      30.25R
Albany         CLEAR     48  34  58 S9        30.21R
$$

NJZ001-105-106-008-010-013-015-019>022-104-180300-
NEW JERSEY

CITY           SKY/WX    TMP DP  RH WIND       PRES   REMARKS
Newark/Liberty CLEAR     52  39  61 S12       30.29R
Teterboro      CLEAR     52  42  69 SW7       30.28R
Caldwell       CLEAR     46  38  73 CALM      30.29R
Somerville     CLEAR     41  38  89 CALM      30.28R
Linden         FAIR      50  38  64 CALM      30.30R
Perth Amboy      N/A     50 N/A N/A SW10        N/A
Sussex         CLEAR     41  38  89 SW3       30.28R
Andover          N/A     41  39  93 CALM      30.28R
Trenton        CLEAR     49  37  63 SW5       30.30R
Millville      CLEAR     42  41  96 CALM      30.33R
Atlantic City  CLEAR     43  40  89 CALM      30.33R
Wrightstown    CLEAR     45  39  81 SW5       30.30R
Toms River       N/A     39  37  92 CALM      30.33R
Belmar         CLEAR     47  40  76 S7        30.32R
$$

PAZ047>061-062-071-180300-
EASTERN PENNSYLVANIA

CITY           SKY/WX    TMP DP  RH WIND       PRES   REMARKS
Philadelphia   CLEAR     53  40  61 SW7       30.32R
Allentown      CLEAR     48  35  60 W5        30.29R
Scranton       CLEAR     44  35  70 CALM      30.26R
$$

CTZ002-004>006-009-010-012-RIZ004-006-007-MAZ004-011-015-180300-
SOUTHERN NEW ENGLAND
 IN CT

CITY           SKY/WX    TMP DP  RH WIND       PRES   REMARKS
Bradley INTL   CLEAR     47  38  71 S7        30.25S
Hartford       CLEAR     46  40  79 S5        30.26S
Danbury        CLEAR     48  37  65 CALM      30.28R
Wtrbury/Oxford CLEAR     46  37  71 SW3       30.27S
Norwalk Harbor   N/A     55 N/A N/A SW16G22     N/A
Bridgeport     CLEAR     57  41  55 SW17      30.28R
Meriden        CLEAR     40  37  89 CALM      30.28R
New Haven      CLEAR     56  40  55 SW8G18    30.28R
Chester        FAIR      48  39  71 SW3       30.27S
Groton         CLEAR     54  40  59 SW12      30.28R
Wilimantic     CLEAR     42  37  82 CALM      30.27S

 IN RI

CITY           SKY/WX    TMP DP  RH WIND       PRES   REMARKS
Providence     CLEAR     47  39  74 W3        30.28S
Block Island   CLEAR     52  39  61 SW10      30.29R
Westerly       CLEAR     54  39  57 SW5       30.29R
 IN MA

CITY           SKY/WX    TMP DP  RH WIND       PRES   REMARKS
Boston         CLEAR     49  37  63 SW15G25   30.24S
Worcester      CLEAR     42  31  64 SW7       30.23S
Westfield      CLEAR     40  35  83 S6        30.24S
Provincetown   CLEAR     51  40  65 SW16      30.27R
Nantucket      CLEAR     46  41  82 W7        30.28R
$$

ANZ330-335-338-340-345-350-353-355-180300-
COASTAL MARINE OBSERVATIONS


STATION/POSITION TIME  SKY/WX   TEMP    WIND        PRES    VSBY  WAVE
                                AIR SEA DIR/SP/G                  HT/PER
                 (UTC)          (F)     (DEG/KT/KT) (MB)    (MI)  (FT/S)
NY HARB ENTRANCE 0050            58 65  220/ 12/ 16 1024.9          2/10
20 S FIRE ISLAND 0150            56 63  240/ 10/ 14 1026.3          2/10
GREAT SOUTH BAY  0130            57 62  220/ 10/ 14   N/A
15 E BARNEGAT LI 0130               66                N/A           2/11
HUDSON CANYON    0050            54 64  240/  2/  6 1025.8          3/11
KINGS POINT      0136            55 66  240/  9/ 11 1026.2
EXECUTION ROCKS  0130            58     200/ 16/ 19   N/A
WESTERN LI SOUND 0049            56     200/ 14/ 19   N/A           1/ 3
CENTRAL LI SOUND 0100            56     220/ 16/ 19   N/A           2
EASTERN LI SOUND NOT AVBL
ROBBINS REEF     0148            55     210/ 15/ 18 1026.1
$$


>>>>>>>>>>>>>>>>>>>>>>>>>>>> KEY <<<<<<<<<<<<<<<<<<<<<<<<<<<
>                                                          <
>     SKY/WX - Sky Condition/Present Weather               <
>     TMP    - Temperature in Fahrenheit                   <
>     DP     - Dew Point in Fahrenheit                     <
>     RH     - Relative Humidity in Percent                <
>     WIND   - Direction (from) and Speed in MPH           <
>     PRES   - Mean Sea Level Pressure (inches of Hg)      <
>     WCI    - Wind Chill Index                            <
>     VSB    - VISIBILITY IN MILES                         <
>     HX     - HEAT INDEX                                  <
>     TC     - TEMPERATURE IN CELSIUS                      <
>     VRB    - VARIABLE WIND DIRECTION                     <
>                                                          <
>>>>>>>>>>>>>>>>>>>>>>>>>>>> KEY <<<<<<<<<<<<<<<<<<<<<<<<<<<



USA.gov is the U.S. government's official web portal to all federal, state and local government web resources and services.